Flag for Switzerland Weather past 2 weeks in Zürich, Zurich, Switzerland

Now
42 °F

Quite cool.


Feels Like: 38 °F
Forecast: 35 / 48 °F
Wind: 7 mph from West

Location: Zurich Town / Ville.

Current Time: Oct 22, 2014 at 2:05:11 AM

Latest Report: Oct 22, 2014 at 1:00 AM


Visibility: N/A

Pressure: 30.13 "Hg

Humidity: 88%

Dew point: 39 °F

Location of ZürichLocation

Historic Weather in Zürich — Graph

°F

Zürich temperature yesterday

Maximum temperature yesterday: 64 °F (at 1:00 PM)
Minimum temperature yesterday: 46 °F (at 9:00 PM)
Average temperature yesterday: 58 °F

Past Weeks' High & Low Weather Summary

 TemperatureHumidityPressure
High72 °F (Oct 9, 5:00 PM)100% (Oct 18, 6:00 AM)30.27 "Hg (Oct 18, 6:00 AM)
Low46 °F (Oct 21, 9:00 PM)46% (Oct 9, 3:00 PM)29.74 "Hg (Oct 21, 7:00 PM)
Average58 °F86%29.95 "Hg
* Reported Midnight between Oct 6 and Oct 7 — Midnight between Oct 21 and Oct 22, Zürich, Weather by CustomWeather, © 2014

Note: Actual official high and low records may vary slightly from our data, if they occured in-between our weather recording intervals... More about our weather records

Advertising

Zürich weather history for previous 24 hours

 ConditionsComfort  
Time TempWeatherWind HumidityBarometerVisibility
12:00 AM
Oct 22
47 °FCool.10 mph77%30.09 "HgN/A
11:00 PM
Oct 21
47 °FCool.10 mph72%30.06 "HgN/A
10:00 PM47 °FCool.14 mph82%30.01 "HgN/A
9:00 PM46 °FCool.14 mph87%29.92 "HgN/A
8:00 PM56 °FPassing clouds.24 mph86%29.75 "HgN/A
7:00 PM61 °FCool.22 mph64%29.74 "HgN/A
6:00 PM61 °FCool.22 mph63%29.77 "HgN/A
5:00 PM63 °FMild.20 mph56%29.79 "HgN/A
4:00 PM64 °FMild.20 mph53%29.82 "HgN/A
3:00 PM64 °FMild.20 mph56%29.85 "HgN/A
2:00 PM63 °FPartly sunny.12 mph73%29.87 "HgN/A
1:00 PM64 °FMild.14 mph72%29.90 "HgN/A
12:00 PM61 °FCool.8 mph88%29.94 "HgN/A
11:00 AM60 °FCool.10 mph88%29.96 "HgN/A
10:00 AM58 °FCool.6 mph95%29.98 "HgN/A
9:00 AM56 °FCool.3 mph95%29.99 "HgN/A
8:00 AM55 °FOvercast.3 mph96%29.99 "HgN/A
7:00 AM56 °FCool.6 mph95%29.99 "HgN/A
6:00 AM56 °FCool.5 mph93%30.00 "HgN/A
5:00 AM56 °FCool.3 mph94%30.01 "HgN/A
4:00 AM57 °FCool.5 mph93%30.02 "HgN/A
3:00 AM58 °FCool.6 mph91%30.02 "HgN/A
2:00 AM58 °FCool.5 mph92%30.04 "HgN/A
Weather by CustomWeather, © 2014

See weather overviewHow to use our weather pages